This is the latest recevied weather packets stored in our database for station/object KG5WBN. If no packets are shown the sender has not sent any weather packets the latest 10 day(s).
| Time | Temp. | Humidity | Pressure | Rain* | Wind** | Luminosity | Snow |
|---|---|---|---|---|---|---|---|
| 1777899683 | 17.78° C | 61% | 1017.6 hPa | 0 mm | - | 27 W/m² | - |
| 1777899381 | 17.22° C | 64% | 1017.6 hPa | 0 mm | - | 25 W/m² | - |
| 1777899079 | 17.22° C | 65% | 1017.3 hPa | 0 mm | - | 24 W/m² | - |
| 1777898775 | 16.67° C | 70% | 1017.6 hPa | 0 mm | - | 23 W/m² | - |
| 1777898473 | 16.67° C | 72% | 1017.3 hPa | 0 mm | - | 22 W/m² | - |
| 1777898171 | 16.67° C | 74% | 1017.3 hPa | 0 mm | - | 22 W/m² | - |
| 1777897867 | 16.11° C | 76% | 1017.6 hPa | 0 mm | - | 21 W/m² | - |
| 1777897563 | 16.11° C | 78% | 1017.3 hPa | 0 mm | - | 20 W/m² | - |
| 1777897259 | 15.56° C | 78% | 1016.9 hPa | 0 mm | - | 19 W/m² | - |
| 1777896955 | 15.56° C | 80% | 1016.9 hPa | 0 mm | - | 18 W/m² | - |
| 1777896652 | 15.56° C | 82% | 1016.9 hPa | 0 mm | - | 17 W/m² | - |
| 1777896349 | 15° C | 81% | 1016.9 hPa | 0 mm | - | 16 W/m² | - |
| 1777896048 | 14.44° C | 82% | 1016.9 hPa | 0 mm | - | 13 W/m² | - |
| 1777895745 | 14.44° C | 81% | 1016.9 hPa | 0 mm | - | 13 W/m² | - |
| 1777895442 | 14.44° C | 81% | 1016.6 hPa | 0 mm | - | 11 W/m² | - |
| 1777895140 | 13.89° C | 81% | 1016.6 hPa | 0 mm | - | 10 W/m² | - |
| 1777894837 | 13.89° C | 81% | 1016.9 hPa | 0 mm | - | 8 W/m² | - |
| 1777894533 | 13.89° C | 80% | 1016.6 hPa | 0 mm | - | 6 W/m² | - |
| 1777894232 | 13.89° C | 80% | 1016.6 hPa | 0 mm | - | 5 W/m² | - |
| 1777893928 | 13.89° C | 79% | 1016.9 hPa | 0 mm | - | 3 W/m² | - |
| 1777893624 | 13.89° C | 78% | 1016.6 hPa | 0 mm | - | 2 W/m² | - |
| 1777893321 | 13.89° C | 78% | 1016.6 hPa | 0 mm | - | 0 W/m² | - |
| 1777893017 | 13.89° C | 77% | 1016.9 hPa | 0 mm | - | 0 W/m² | - |
| 1777892715 | 13.89° C | 77% | 1016.6 hPa | 0 mm | - | 0 W/m² | - |
| 1777892410 | 14.44° C | 76% | 1016.9 hPa | 0 mm | - | 0 W/m² | - |
* Rain latest hour (hover to see other rain measurements)
** Current wind speed in m/s (hover to see current wind gust speed)